User: anonymous
Location: Unspecified
(0.0000°N, 0.0000°E)
Time: 17:27:46
(UTC+02:00)
Language:

Cosmos 1300 - Orbit

View from above orbital plane
View from above orbital plane
View from above satellite
View from above satellite

Ground track
Ground track

The orbit data is extracted from the following two-line orbital elements,

1 12785U 81082A   14106.18096885  .00004228  00000-0  25408-3 0  6905
2 12785 082.5027 134.1957 0001133 075.7195 036.9562 15.10648004776562
Epoch (UTC): 16 April 2014 04:20:35
Eccentricity: 0.0001133
inclination: 82.5027°
perigee height: 533 km
apogee height: 535 km
right ascension of ascending node: 134.1957°
argument of perigee: 75.7195°
revolutions per day: 15.10648004
mean anomaly at epoch: 36.9562°
orbit number at epoch: 77656

The dashed part of the orbit path shows where the satellite is in the earth's shadow,  

DLR